Regional Weather Roundup
Issued by NWS

Home | Current Version | Previous Version | Graphics & Text | Print | Product List | Glossary On
Versions: 1 2 3 4 5 6 7 8 9 10 11 12 13 14 15 16 17 18 19 20 21 22 23 24 25 26 27 28 29 30 31 32 33 34 35 36 37 38 39 40 41 42 43 44 45 46 47 48 49 50
000
ASUS45 KCYS 100410
RWRWY

WYOMING REGIONAL WEATHER ROUNDUP
NATIONAL WEATHER SERVICE CHEYENNE WY
900 PM MST TUE FEB 09 2016

NOTE:  "FAIR" INDICATES FEW OR NO CLOUDS BELOW 12,000 FEET
WITH NO SIGNIFICANT WEATHER AND/OR OBSTRUCTIONS TO VISIBILITY.

WYZ001-100500-
YELLOWSTONE NATIONAL PARK

CITY           SKY/WX    TMP DP  RH WIND       PRES   REMARKS
LK YELLOWSTONE   N/A     17  13  84 NW3       30.45F
W YELLOWSTONE  NOT AVBL

$$
WYZ002>013-054>058-071-098>099-100500-
NORTHERN WYOMING

CITY           SKY/WX    TMP DP  RH WIND       PRES   REMARKS
JACKSON        FAIR      10  10 100 N10       30.46S WCI  -3
CODY           FAIR      39  19  45 NW5       30.20F
GREYBULL       FAIR      35  26  69 SE6       30.22F WCI  30
WORLAND        FAIR      32  25  75 CALM      30.22F
SHERIDAN       FAIR      38  22  52 S7        30.11R WCI  33
BUFFALO        FAIR      44  22  41 S10       30.14F
GILLETTE       FAIR      41  28  60 W10       30.12F
HULETT         FAIR      43  28  56 SW7       30.10F
NEWCASTLE      FAIR      34  27  75 NW3       30.14S

$$
WYZ014>020-022>026-101>103-100500-
CENTRAL WYOMING

CITY           SKY/WX    TMP DP  RH WIND       PRES   REMARKS
BIG PINEY      FAIR      27  19  72 NE3       30.42R
PINEDALE       FAIR      23  21  93 CALM      30.42S
DUBOIS         FAIR      34  16  47 NW20      30.36S WCI  22
LANDER         FAIR      30  20  66 CALM      30.28S
RIVERTON       FAIR      26  19  74 CALM      30.29F
CASPER         FAIR      36  23  59 SW29G43   30.23F WCI  23
DOUGLAS        FAIR      31  24  75 NW6         N/A  WCI  25

$$
WYZ021-027>030-104>119-100500-
SOUTHERN WYOMING

CITY           SKY/WX    TMP DP  RH WIND       PRES   REMARKS
EVANSTON       FAIR      31  22  69 S6        30.46S WCI  25
FORT BRIDGER   CLEAR     39  21  48 W16       30.46S WCI  30
ROCK SPRINGS   FAIR      35  22  58 SW15      30.40S WCI  25
DIXON          FAIR      20  15  80 E5        30.47S WCI  13
RAWLINS        FAIR      35  18  49 W14G24    30.38S WCI  26
SARATOGA       FAIR      19  16  86 S3        30.41R
LARAMIE        FAIR      26  18  71 SE8       30.31F WCI  18
CHEYENNE       FAIR      39  17  41 NW8       30.24F WCI  33
TORRINGTON     FAIR      37  25  61 NW13      30.17F WCI  29
PINE BLUFFS    FAIR      34  27  75 W9        30.23S WCI  26

$$



USA.gov is the U.S. government's official web portal to all federal, state and local government web resources and services.